TELKOM 4 (MERAH PUTIH)

Last updated on Tue Oct 08 2024 00:02:41 GMT+0000 (Coordinated Universal Time)

1 43587U 18064A 24281.53454949 -.00000333 00000+0 00000+0 0 9994 2 43587 0.0194 237.8354 0001691 344.5728 94.7271 1.00270781 22689
UTC large
Height (km)
Speed (km/s)
/
Latitude / Longitude
Inclination (degrees)
Orbital Period (minutes)
Azimuth
Elevation
Range (km)
Doppler Factor

Next 0 passes for location: London (51.5072 / 0.1276)

Sorry there are no passes over London.